When you browse on this site, cookies collect data to enhance your experience and personalize the content and advertising you see.
Visit our Privacy Policy to learn more. By continuing to use the site, you agree to this use of cookies and data.
  • In Belgium
  • List of Countries
  • For 7 days
  • Water Temperature
  • Satellite Maps
  • Weather Map
  • Weather Widgets
  • user-avatar
    Login

    Hourly Weather Goryushkino

    Today, 19 June, Wednesday

    Time Temperature Precipitation Wind Pressure Humidity
    00:00 +18°C° 0.2 mm 3 mps 747 mmHg 93%
    01:00 +18°C° 0 mm 3 mps 747 mmHg 93%
    02:00 +17°C° 0 mm 3 mps 747 mmHg 93%
    03:00 +17°C° 0 mm 3 mps 747 mmHg 94%
    04:00 +17°C° 0 mm 2 mps 747 mmHg 93%
    05:00 +18°C° 0 mm 2 mps 748 mmHg 91%
    06:00 +18°C° 0 mm 2 mps 748 mmHg 90%
    07:00 +20°C° 0 mm 2 mps 748 mmHg 85%
    08:00 +21°C° 0 mm 2 mps 748 mmHg 80%
    09:00 +24°C° 0 mm 3 mps 749 mmHg 75%
    10:00 +25°C° 0.2 mm 3 mps 749 mmHg 68%
    11:00 +26°C° 0.2 mm 2 mps 749 mmHg 62%
    12:00 +27°C° 0.2 mm 2 mps 749 mmHg 55%
    13:00 +27°C° 0.1 mm 2 mps 749 mmHg 56%
    14:00 +27°C° 0.1 mm 2 mps 749 mmHg 56%
    15:00 +27°C° 0.1 mm 2 mps 749 mmHg 57%
    16:00 +27°C° 0.2 mm 2 mps 749 mmHg 61%
    17:00 +26°C° 0.2 mm 2 mps 749 mmHg 66%
    18:00 +26°C° 0.2 mm 3 mps 749 mmHg 71%
    19:00 +24°C° 0.1 mm 2 mps 749 mmHg 76%
    20:00 +23°C° 0.1 mm 2 mps 749 mmHg 81%
    21:00 +20°C° 0.1 mm 2 mps 749 mmHg 85%
    22:00 +19°C° 0 mm 2 mps 749 mmHg 85%
    23:00 +18°C° 0 mm 2 mps 749 mmHg 86%

    Tomorrow, 20 June, Thursday

    Time Temperature Precipitation Wind Pressure Humidity
    00:00 +19°C° 0 mm 1 mps 749 mmHg 86%
    01:00 +18°C° 0 mm 1 mps 750 mmHg 85%
    02:00 +16°C° 0 mm 1 mps 750 mmHg 84%
    03:00 +16°C° 0 mm 1 mps 750 mmHg 83%
    04:00 +16°C° 0 mm 1 mps 750 mmHg 83%
    05:00 +18°C° 0 mm 1 mps 750 mmHg 83%
    06:00 +19°C° 0 mm 1 mps 750 mmHg 82%
    07:00 +20°C° 0 mm 1 mps 750 mmHg 77%
    08:00 +22°C° 0 mm 1 mps 750 mmHg 72%
    09:00 +23°C° 0 mm 2 mps 750 mmHg 67%
    10:00 +25°C° 0 mm 2 mps 751 mmHg 63%
    11:00 +26°C° 0 mm 2 mps 751 mmHg 59%
    12:00 +27°C° 0 mm 2 mps 751 mmHg 55%
    13:00 +27°C° 0 mm 2 mps 751 mmHg 54%
    14:00 +28°C° 0 mm 2 mps 750 mmHg 53%
    15:00 +28°C° 0 mm 2 mps 750 mmHg 52%
    16:00 +28°C° 0 mm 2 mps 750 mmHg 55%
    17:00 +28°C° 0 mm 2 mps 750 mmHg 59%
    18:00 +27°C° 0 mm 1 mps 750 mmHg 63%
    19:00 +25°C° 0 mm 1 mps 750 mmHg 67%
    20:00 +24°C° 0 mm 1 mps 750 mmHg 70%
    21:00 +22°C° 0 mm 1 mps 750 mmHg 74%
    22:00 +21°C° 0 mm 1 mps 750 mmHg 76%
    23:00 +20°C° 0 mm 1 mps 751 mmHg 77%

    Day after tomorrow, 21 June, Friday

    Time Temperature Precipitation Wind Pressure Humidity
    00:00 +20°C° 0 mm 1 mps 751 mmHg 78%
    01:00 +19°C° 0 mm 1 mps 751 mmHg 80%
    02:00 +19°C° 0 mm 1 mps 751 mmHg 81%
    03:00 +18°C° 0 mm 1 mps 751 mmHg 83%
    04:00 +19°C° 0 mm 1 mps 751 mmHg 83%
    05:00 +20°C° 0 mm 1 mps 751 mmHg 83%
    06:00 +20°C° 0 mm 1 mps 751 mmHg 84%
    07:00 +22°C° 0 mm 1 mps 752 mmHg 78%
    08:00 +24°C° 0 mm 1 mps 752 mmHg 73%
    09:00 +25°C° 0 mm 2 mps 752 mmHg 68%
    10:00 +26°C° 0 mm 2 mps 752 mmHg 64%
    11:00 +27°C° 0 mm 2 mps 752 mmHg 60%
    12:00 +27°C° 0 mm 2 mps 752 mmHg 57%
    13:00 +28°C° 0 mm 2 mps 751 mmHg 56%
    14:00 +28°C° 0 mm 2 mps 751 mmHg 55%
    15:00 +28°C° 0 mm 2 mps 751 mmHg 54%
    16:00 +28°C° 0 mm 2 mps 751 mmHg 57%
    17:00 +28°C° 0 mm 2 mps 751 mmHg 60%
    18:00 +28°C° 0 mm 1 mps 751 mmHg 63%
    19:00 +26°C° 0 mm 1 mps 751 mmHg 66%
    20:00 +24°C° 0 mm 1 mps 751 mmHg 68%
    21:00 +22°C° 0 mm 1 mps 751 mmHg 71%
    22:00 +22°C° 0 mm 1 mps 751 mmHg 72%
    23:00 +21°C° 0 mm 1 mps 751 mmHg 73%

    22 June, Saturday

    Time Temperature Precipitation Wind Pressure Humidity
    00:00 +21°C° 0 mm 1 mps 751 mmHg 74%
    01:00 +20°C° 0 mm 1 mps 751 mmHg 76%
    02:00 +20°C° 0 mm 1 mps 751 mmHg 78%
    03:00 +19°C° 0 mm 1 mps 751 mmHg 80%
    04:00 +20°C° 0 mm 1 mps 751 mmHg 80%
    05:00 +20°C° 0 mm 1 mps 751 mmHg 80%
    06:00 +21°C° 0 mm 1 mps 752 mmHg 80%
    07:00 +23°C° 0 mm 1 mps 751 mmHg 77%
    08:00 +24°C° 0 mm 2 mps 752 mmHg 72%
    09:00 +26°C° 0 mm 2 mps 752 mmHg 67%
    10:00 +27°C° 0 mm 2 mps 752 mmHg 62%
    11:00 +28°C° 0 mm 2 mps 752 mmHg 57%
    12:00 +29°C° 0 mm 3 mps 752 mmHg 52%
    13:00 +29°C° 0 mm 3 mps 752 mmHg 51%
    14:00 +29°C° 0 mm 3 mps 751 mmHg 51%
    15:00 +29°C° 0 mm 3 mps 751 mmHg 51%
    16:00 +29°C° 0 mm 2 mps 751 mmHg 54%
    17:00 +29°C° 0 mm 2 mps 751 mmHg 57%
    18:00 +29°C° 0 mm 1 mps 751 mmHg 60%
    19:00 +27°C° 0 mm 1 mps 751 mmHg 63%
    20:00 +25°C° 0 mm 1 mps 751 mmHg 66%
    21:00 +23°C° 0 mm 1 mps 751 mmHg 69%
    22:00 +22°C° 0 mm 1 mps 751 mmHg 71%
    23:00 +22°C° 0 mm 1 mps 751 mmHg 73%

    23 June, Sunday

    Time Temperature Precipitation Wind Pressure Humidity
    00:00 +21°C° 0 mm 1 mps 751 mmHg 75%
    01:00 +21°C° 0 mm 1 mps 751 mmHg 77%
    02:00 +20°C° 0 mm 1 mps 751 mmHg 78%
    03:00 +20°C° 0 mm 1 mps 751 mmHg 79%
    04:00 +21°C° 0 mm 1 mps 751 mmHg 80%
    05:00 +21°C° 0 mm 1 mps 752 mmHg 80%
    06:00 +22°C° 0 mm 1 mps 752 mmHg 80%
    07:00 +24°C° 0 mm 1 mps 752 mmHg 75%
    08:00 +25°C° 0 mm 1 mps 752 mmHg 69%
    09:00 +27°C° 0 mm 2 mps 752 mmHg 64%
    10:00 +28°C° 0 mm 2 mps 752 mmHg 60%
    11:00 +29°C° 0 mm 2 mps 752 mmHg 55%
    12:00 +30°C° 0 mm 2 mps 752 mmHg 50%
    13:00 +30°C° 0 mm 2 mps 752 mmHg 51%
    14:00 +30°C° 0 mm 2 mps 752 mmHg 52%
    15:00 +30°C° 0 mm 2 mps 751 mmHg 53%
    16:00 +30°C° 0 mm 2 mps 751 mmHg 55%
    17:00 +30°C° 0 mm 2 mps 751 mmHg 56%
    18:00 +30°C° 0 mm 1 mps 750 mmHg 58%
    19:00 +28°C° 0 mm 1 mps 750 mmHg 61%
    20:00 +26°C° 0 mm 1 mps 750 mmHg 64%
    21:00 +24°C° 0 mm 2 mps 750 mmHg 68%
    22:00 +23°C° 0 mm 2 mps 750 mmHg 68%
    23:00 +23°C° 0 mm 2 mps 750 mmHg 69%

    24 June, Monday

    Time Temperature Precipitation Wind Pressure Humidity
    00:00 +21°C° 0 mm 2 mps 751 mmHg 69%
    01:00 +21°C° 0 mm 2 mps 751 mmHg 70%
    02:00 +20°C° 0 mm 2 mps 751 mmHg 72%
    03:00 +20°C° 0 mm 2 mps 751 mmHg 73%
    04:00 +20°C° 0 mm 2 mps 750 mmHg 75%
    05:00 +21°C° 0 mm 2 mps 750 mmHg 77%
    06:00 +21°C° 0 mm 2 mps 750 mmHg 79%
    07:00 +24°C° 0 mm 2 mps 750 mmHg 74%
    08:00 +26°C° 0 mm 2 mps 751 mmHg 69%
    09:00 +27°C° 0 mm 3 mps 751 mmHg 64%
    10:00 +28°C° 0 mm 3 mps 751 mmHg 60%
    11:00 +29°C° 0 mm 3 mps 750 mmHg 57%
    12:00 +30°C° 0 mm 4 mps 750 mmHg 53%
    13:00 +30°C° 0 mm 4 mps 750 mmHg 53%
    14:00 +31°C° 0 mm 3 mps 750 mmHg 52%
    15:00 +31°C° 0 mm 3 mps 750 mmHg 51%
    16:00 +31°C° 0 mm 3 mps 749 mmHg 55%
    17:00 +30°C° 0 mm 3 mps 749 mmHg 60%
    18:00 +30°C° 0 mm 2 mps 749 mmHg 64%
    19:00 +28°C° 0.1 mm 2 mps 749 mmHg 66%
    20:00 +26°C° 0.1 mm 2 mps 749 mmHg 68%
    21:00 +25°C° 0.1 mm 2 mps 749 mmHg 70%
    22:00 +24°C° 0.1 mm 1 mps 749 mmHg 71%
    23:00 +23°C° 0.1 mm 1 mps 749 mmHg 73%
    Show more